Miramar MCAS, CA

11:15 AM PDT on June 25, 2017 (GMT -0700)
Miramar Marine Corps Air Station-Mitscher

Weather History for KNKX - May, 2014

Change the Weather History Date:

Friday, May 2, 2014

  Actual Average Record
Temperature  
Mean Temperature 77 °F -  
Max Temperature 97 °F 69 °F 97 °F (2014)
Min Temperature 57 °F 50 °F 44 °F (2002)
Cooling Degree Days 12    
Growing Degree Days 27 (Base 50)    
Moisture  
Dew Point 22 °F    
Average Humidity 17    
Maximum Humidity 36    
Minimum Humidity 4    
Precipitation  
Precipitation 0.00 in - - ()
Sea Level Pressure  
Sea Level Pressure 29.94 in    
Wind  
Wind Speed 5 mph (WNW)    
Max Wind Speed 13 mph    
Max Gust Speed -    
Visibility 10 miles    
Events      
Averages and records for this station are not official NWS values.
T = Trace of Precipitation, MM = Missing Value Source: NWS Daily Summary

Daily Weather History Graph

Daily Weather History Graph

Search for Another Location

Airport or City:

Trip Planner

Search our weather history database for the weather conditions in past years. The results will help you decide how hot, cold, wet, or windy it might be!

Date:

Astronomy

May. 02, 2014 Rise Set
Actual Time 6:00 AM PDT 7:31 PM PDT
Civil Twilight 5:33 AM PDT 7:57 PM PDT
Nautical Twilight 5:02 AM PDT 8:29 PM PDT
Astronomical Twilight 4:29 AM PDT 9:02 PM PDT
Moon 8:44 AM PDT (5/2) 10:54 PM PDT (5/2)
Length of Visible Light 14h 23m
Length of Day
13h 31m
Waxing Crescent, 13% of the Moon is Illuminated
May 2
Waxing Crescent
May 6
First Quarter
May 14
Full
May 21
Last Quarter
May 28
New

Hourly Weather History & Observations

Time (PDT) Temp. Dew Point Humidity Pressure Visibility Wind Dir Wind Speed Gust Speed Precip Events Conditions
12:55 AM 66.0 °F 33.1 °F 29% 29.98 in 10.0 mi Calm Calm - N/A   Clear
1:55 AM 59.0 °F 26.1 °F 28% 29.96 in 10.0 mi East 4.6 mph - N/A   Clear
2:55 AM 57.9 °F 25.0 °F 28% 29.95 in 10.0 mi East 4.6 mph - N/A   Clear
3:55 AM 59.0 °F 25.0 °F 27% 29.94 in 10.0 mi East 3.5 mph - N/A   Clear
4:55 AM 61.0 °F 25.0 °F 25% 29.94 in 10.0 mi East 8.1 mph - N/A   Clear
5:55 AM 61.0 °F 23.0 °F 23% 29.95 in 10.0 mi East 6.9 mph - N/A   Clear
6:55 AM 66.9 °F 24.1 °F 20% 29.96 in 10.0 mi ENE 5.8 mph - N/A   Partly Cloudy
7:55 AM 77.0 °F 23.0 °F 13% 29.97 in 10.0 mi Variable 3.5 mph - N/A   Partly Cloudy
8:55 AM 84.0 °F 19.0 °F 9% 29.97 in 10.0 mi Calm Calm - N/A   Partly Cloudy
9:55 AM 90.0 °F 12.0 °F 6% 29.97 in 10.0 mi Variable 3.5 mph - N/A   Partly Cloudy
10:55 AM 93.0 °F 10.0 °F 5% 29.96 in 10.0 mi WSW 6.9 mph - N/A   Partly Cloudy
11:55 AM 95.0 °F 9.0 °F 4% 29.95 in 10.0 mi WSW 10.4 mph - N/A   Partly Cloudy
12:55 PM 97.0 °F 10.9 °F 4% 29.93 in 10.0 mi West 12.7 mph - N/A   Partly Cloudy
1:55 PM 95.0 °F 7.0 °F 4% 29.92 in 10.0 mi West 11.5 mph - N/A   Partly Cloudy
2:55 PM 91.0 °F 25.0 °F 9% 29.91 in 10.0 mi NW 11.5 mph - N/A   Clear
3:55 PM 88.0 °F 17.1 °F 7% 29.91 in 10.0 mi WNW 11.5 mph - N/A   Partly Cloudy
4:55 PM 88.0 °F 18.0 °F 8% 29.91 in 10.0 mi WNW 9.2 mph - N/A   Partly Cloudy
5:55 PM 84.9 °F 18.0 °F 8% 29.90 in 10.0 mi WNW 5.8 mph - N/A   Partly Cloudy
6:55 PM 80.1 °F 21.0 °F 11% 29.90 in 10.0 mi West 6.9 mph - N/A   Partly Cloudy
7:55 PM 71.1 °F 28.0 °F 20% 29.92 in 10.0 mi WSW 6.9 mph - N/A   Partly Cloudy
8:55 PM 64.9 °F 28.0 °F 25% 29.93 in 10.0 mi SSW 3.5 mph - N/A   Partly Cloudy
9:55 PM 64.0 °F 33.1 °F 31% 29.94 in 10.0 mi Calm Calm - N/A   Partly Cloudy
10:55 PM 61.0 °F 28.9 °F 30% 29.94 in 10.0 mi ENE 5.8 mph - N/A   Partly Cloudy
11:55 PM 60.1 °F 33.1 °F 36% 29.93 in 10.0 mi NE 4.6 mph - N/A   Partly Cloudy